Regional Weather Roundup
Issued by NWS Green Bay, WI

Home | Current Version | Previous Version | Graphics & Text | Print | Product List | Glossary Off
Versions: 1 2 3 4 5 6 7 8 9 10 11 12 13 14 15 16 17 18 19 20 21 22 23 24 25 26 27 28 29 30 31 32 33 34 35 36 37 38 39 40 41 42 43 44 45 46 47 48 49 50

000
ASUS43 KGRB 280400
RWRGRB

NORTH-CENTRAL AND NORTHEAST WISCONSIN REGIONAL WEATHER ROUNDUP
NATIONAL WEATHER SERVICE GREEN BAY WI
1100 PM CDT WED MAY 27 2015

WIZ005-009-010>012-018-019-280500-
NORTH CENTRAL WISCONSIN

CITY           SKY/WX    TMP DP  RH WIND       PRES   REMARKS
IRONWOOD       CLEAR     55  55 100 CALM      30.01R
MANITOWISH WTR NOT AVBL
ARBOR VITAE    NOT AVBL
EAGLE RIVER    NOT AVBL
LAND O LAKES   NOT AVBL
RHINELANDER    PTCLDY    55  53  93 CALM      30.06S
PHILLIPS       NOT AVBL
ANTIGO         NOT AVBL
TOMAHAWK       NOT AVBL
MERRILL        NOT AVBL
$$

WIZ013-073-280500-
NORTHEAST WISCONSIN

CITY           SKY/WX    TMP DP  RH WIND       PRES   REMARKS
IRON MOUNTAIN  PTCLDY    59  52  77 N3        30.03R
MARINETTE      CLOUDY    59  54  82 SW9       30.03F
$$

WIZ017-030-035>037-045-280500-
CENTRAL WISCONSIN

CITY           SKY/WX    TMP DP  RH WIND       PRES   REMARKS
MEDFORD        NOT AVBL
WAUSAU         MOCLDY    58  56  93 E5        30.05S
MOSINEE        NOT AVBL
MARSHFIELD     PTCLDY    58  55  90 S5        30.07R
WISC RAPIDS    MOCLDY    60  56  86 SE3       30.08F
STEVENS POINT  NOT AVBL
WAUPACA        NOT AVBL
SHAWANO        NOT AVBL
CLINTONVILLE   NOT AVBL
$$

WIZ038-039-048-051-280500-
FOX VALLEY

CITY           SKY/WX    TMP DP  RH WIND       PRES   REMARKS
NWS GREEN BAY  CLOUDY    66  54  65 NW9       30.06R
APPLETON       MOCLDY    66  52  59 N9        30.09R
OSHKOSH        MOCLDY    68  58  70 SW5       30.07R
FOND DU LAC    MOCLDY    66  57  72 SW6       30.08R
$$

WIZ022-050-052-280500-
EAST CENTRAL WISCONSIN

CITY           SKY/WX    TMP DP  RH WIND       PRES   REMARKS
STURGEON BAY   CLOUDY    59  54  82 S6        30.07R
MANITOWOC      NOT AVBL
SHEBOYGAN      PTCLDY    59  57  93 S5        30.08R
$$

LMZ563-521-522-541>543-280500-
LAKESHORE

STATION/POSITION TIME  TEMP    WIND        PRES    VSBY  WAVE
                       AIR SEA DIR/SP/G                  HT/PER
                 (UTC) (F)     (DEG/KT/KT) (MB)    (MI)  (FT/S)
SHEBOYGAN LKSHOR 0300   60     180/ 11/ 12 1018.2R
KEWAUNEE LKSHORE 0300   61     190/ 18/ 21 1016.9R
ALGOMA MARINA    0308          230/ 18/ 23   N/A
NORTHPORT PIER   0300   63     200/  6/ 11 1015.9R
N MID LAKE BUOY  0250   42 36  250/  6/ 10 1018.3R         1/ 4
SISTER BAY LKSHO 0348   59     250/ 16/ 19   N/A
CHAMBERS ISLAND  0300   57     190/  2/  3 1016.9R
MENOMINEE LKSHOR 0300   63     280/  3/  5 1017.5R
$$


USA.gov is the U.S. government's official web portal to all federal, state and local government web resources and services.